Regional Weather Roundup
Issued by NWS

Home | Current Version | Previous Version | Graphics & Text | Print | Product List | Glossary On
Versions: 1 2 3 4 5 6 7 8 9 10 11 12 13 14 15 16 17 18 19 20 21 22 23 24 25 26 27 28 29 30 31 32 33 34 35 36 37 38 39 40 41 42 43 44 45 46 47 48 49 50
000
ASUS43 KLMK 242202
RWRKY
KENTUCKY REGIONAL WEATHER ROUNDUP
NATIONAL WEATHER SERVICE LOUISVILLE KY
500 PM EST FRI FEB 24 2017

NOTE "FAIR" INDICATES FEW OR NO CLOUDS BELOW 12,000 FEET
WITH NO SIGNIFICANT WEATHER AND/OR OBSTRUCTIONS TO VISIBILITY.

KYZ001>023-026-027-061>063-070>075-242300-
WESTERN AND SOUTH CENTRAL KENTUCKY

CITY           SKY/WX    TMP DP  RH WIND       PRES   REMARKS
PADUCAH        CLOUDY    64  54  69 SW14G21   29.63R
HENDERSON      CLOUDY    66  52  59 W16G25    29.58R
OWENSBORO      PTSUNNY   74  52  46 SW16      29.54S
HOPKINSVILLE   MOSUNNY   75  53  46 W20       29.60R
BOWLING GREEN  SUNNY     79  53  40 S15       29.59F
GLASGOW        NOT AVBL
$$

KYZ024-025-028>034-038-045-046-053-242300-
NORTH CENTRAL KENTUCKY

CITY           SKY/WX    TMP DP  RH WIND       PRES   REMARKS
LOUISVILLE/SDF PTSUNNY   78  50  37 S17G29    29.55S
LOUISVILLE/LOU CLOUDY    78  51  38 S16G30    29.55S
FORT KNOX      PTSUNNY   75  54  46 S15G25    29.56R
$$

KYZ035>037-039>044-047>052-055>060-089>105-242300-
NORTHEAST KENTUCKY

CITY           SKY/WX    TMP DP  RH WIND       PRES   REMARKS
LEXINGTON      MOSUNNY   78  49  35 S16G25    29.59S
COVINGTON      PTSUNNY   75  52  44 SW13      29.56S
FRANKFORT      MOSUNNY   77  47  34 SW20G28   29.57S
$$

KYZ054-064>069-076>088-106>120-242300-
SOUTHEAST KENTUCKY

CITY           SKY/WX    TMP DP  RH WIND       PRES   REMARKS
JACKSON        SUNNY     76  49  38 S13G22    29.66F
LONDON         SUNNY     75  50  41 S12       29.65F
SOMERSET       MOSUNNY   73  50  43 S13G24    29.65S
MIDDLESBORO    SUNNY     75  52  43 S12G18    29.70F
MONTICELLO     PTCLDY    76  54  46 SE6G20    29.66S
$$





USA.gov is the U.S. government's official web portal to all federal, state and local government web resources and services.